Regional Weather Roundup
Issued by NWS

Home | Current Version | Previous Version | Graphics & Text | Print | Product List | Glossary On
Versions: 1 2 3 4 5 6 7 8 9 10 11 12 13 14 15 16 17 18 19 20 21 22 23 24 25 26 27 28 29 30 31 32 33 34 35 36 37 38 39 40 41 42 43 44 45 46 47 48 49 50
000
ASUS43 KTOP 232208
RWRKS

WEATHER ROUNDUP FOR KANSAS
NATIONAL WEATHER SERVICE GOODLAND KS
500 PM CDT WED JUL 23 2014

NOTE:  "FAIR" INDICATES FEW OR NO CLOUDS BELOW 12,000 FEET WITH NO
SIGNIFICANT WEATHER AND/OR OBSTRUCTIONS TO VISIBILITY.

KSZ001>006-013>018-027>032-041>047-232300-
NORTHWEST KANSAS

CITY           SKY/WX    TMP DP  RH WIND       PRES   REMARKS
GOODLAND       SUNNY     90  60  36 S16G24    30.21F
HAYS           MOSUNNY   90  63  40 SE13      30.15R
HILL CITY      MOSUNNY   89  63  41 E10       30.16F
RUSSELL        PTSUNNY   85  65  51 E14       30.13F
$$

KSZ061>065-074>080-084>089-232300-
SOUTHWEST KANSAS

CITY           SKY/WX    TMP DP  RH WIND       PRES   REMARKS
DODGE CITY     SUNNY     90  67  46 SE10      30.17F
ELKHART          N/A     93  64  38 SE13        N/A
GARDEN CITY    MOSUNNY   89  67  47 E14       30.18F
GREAT BEND     SUNNY     90  66  45 SE9       30.12R
LIBERAL        PTSUNNY   97  61  30 E14       30.18F HX  97
PRATT          MOSUNNY   90  64  43 E5        30.15F
$$

KSZ066>073-081>083-090>101-232300-
SOUTHEAST KANSAS

CITY           SKY/WX    TMP DP  RH WIND       PRES   REMARKS
CHANUTE        PTSUNNY   88  70  55 N14       30.06F
COFFEYVILLE    MOSUNNY   82  69  64 NW9       30.04F
HUTCHINSON     MOSUNNY   89  66  46 E10       30.11F
MEDICINE LODGE   N/A     93  74  53 E12       30.11F HX 103
NEWTON         MOSUNNY   86  63  45 NE10      30.15F
PARSONS        MOSUNNY   87  73  62 W8        30.06F
WICHITA INTL   MOSUNNY   90  67  46 NE9       30.09F
WICHITA JABRA  MOSUNNY   89  68  49 NE9       30.10F
WICHITA MCCONL MOSUNNY   89  65  46 NE13      30.10F
WINFIELD       PTSUNNY   87  69  54 N12       30.10F
$$

KSZ007>012-019>026-033>040-048>060-102>105-232300-
NORTHEAST KANSAS

CITY           SKY/WX    TMP DP  RH WIND       PRES   REMARKS
CONCORDIA      PTSUNNY   86  62  44 E13G20    30.12F
EMPORIA        PTSUNNY   88  65  46 VRB3      30.09F
LAWRENCE       SUNNY     89  68  49 N10       30.11F
MANHATTAN      SUNNY     91  61  36 E14       30.10F
MARYSVILLE     MOSUNNY   86  61  42 E9        30.13F
OLATHE IND     SUNNY     88  64  44 N9        30.10F
OLATHE EXE     SUNNY     87  65  47 NE9       30.09F
SALINA         PTSUNNY   90  62  39 E7        30.12S
TOPEKA BILLARD SUNNY     91  64  40 N10       30.11F
TOPEKA FORBES  SUNNY     90  62  39 N9        30.11F
$$



USA.gov is the U.S. government's official web portal to all federal, state and local government web resources and services.